EW0590 Weather Reports


time (UTC)temp
C
wind
direction
speed
KPH
gust
KPH
rain 1hr
cm
rain 24hr
cm
rain mn
cm
humidity
%
barometer
mb
20260505100919 15 211 1.6 6.4 0.00 0.00 0.05 81 1006.3
20260505095919 15 321 4.8 8.0 0.00 0.00 0.05 82 1006.0
20260505094919 16 316 8.0 14.5 0.00 0.00 0.03 82 1006.0
20260505093919 16 285 1.6 4.8 0.00 0.00 0.00 80 1005.8
20260505092919 16 266 3.2 3.2 0.00 0.00 0.00 81 1005.5
20260505091918 16 183 0.0 0.0 0.00 0.00 0.00 81 1004.9
20260505090918 16 183 0.0 0.0 0.00 0.00 0.00 80 1005.0
20260505085919 16 182 0.0 0.0 0.00 0.00 0.00 79 1004.9
20260505084919 17 183 0.0 0.0 0.00 0.00 0.00 78 1004.9
20260505083918 17 183 0.0 0.0 0.00 0.00 0.00 77 1004.8
20260505082918 17 183 0.0 3.2 0.00 0.00 0.00 75 1004.9
20260505081919 17 146 0.0 1.6 0.00 0.00 0.00 74 1004.9
20260505080918 18 260 0.0 1.6 0.00 0.00 0.00 74 1004.9
20260505075919 18 259 0.0 0.0 0.00 0.00 0.00 72 1005.2
20260505074919 18 260 0.0 1.6 0.00 0.00 0.00 70 1005.4
20260505073918 18 260 0.0 0.0 0.00 0.00 0.00 70 1005.5
20260505072918 19 259 0.0 6.4 0.00 0.00 0.00 65 1005.5
20260505071918 20 255 0.0 4.8 0.00 0.00 0.00 64 1005.2
20260505070918 20 271 0.0 8.0 0.00 0.00 0.00 63 1005.4
20260505065918 20 225 0.0 11.3 0.00 0.00 0.00 65 1005.3
20260505064918 20 238 1.6 6.4 0.00 0.00 0.00 65 1004.2
20260505063918 21 243 3.2 9.7 0.00 0.00 0.00 64 1004.2
20260505062918 21 102 3.2 6.4 0.00 0.00 0.00 64 1004.1
20260505061918 21 205 0.0 9.7 0.00 0.00 0.00 64 1004.2
20260505060918 21 135 0.0 6.4 0.00 0.00 0.00 64 1004.0
20260505055918 21 277 1.6 11.3 0.00 0.00 0.00 63 1003.9
20260505054918 21 131 0.0 12.9 0.00 0.00 0.00 63 1003.8
20260505053918 21 96 3.2 8.0 0.00 0.00 0.00 63 1003.6
20260505052918 21 181 0.0 9.7 0.00 0.00 0.00 64 1003.6
20260505051918 21 120 0.0 8.0 0.00 0.00 0.00 64 1003.4
20260505050918 21 89 0.0 8.0 0.00 0.00 0.00 64 1003.3
20260505040918 21 134 0.0 8.0 0.00 0.00 0.48 62 1003.3
20260505035918 21 150 0.0 8.0 0.00 0.00 0.48 62 1003.6
20260505034918 21 201 1.6 8.0 0.00 0.00 0.48 62 1003.6
20260505033918 21 167 6.4 6.4 0.00 0.00 0.48 61 1003.7
20260505032918 21 148 0.0 8.0 0.00 0.00 0.48 62 1003.7
20260505031918 21 60 1.6 3.2 0.00 0.00 0.48 63 1003.7
20260505030918 22 8 0.0 1.6 0.00 0.00 0.48 61 1003.7
20260505025918 22 228 0.0 8.0 0.00 0.00 0.48 61 1003.6
20260505024918 22 145 6.4 6.4 0.00 0.00 0.48 60 1003.5
20260505023918 22 136 1.6 3.2 0.00 0.00 0.48 59 1003.3
20260505022918 22 128 0.0 3.2 0.00 0.00 0.48 59 1003.0
20260505021918 22 58 0.0 4.8 0.00 0.00 0.48 59 1002.7
20260505020918 22 221 8.0 9.7 0.00 0.00 0.48 59 1002.6
20260505015918 22 215 0.0 3.2 0.00 0.00 0.48 60 1002.4
20260505014918 21 229 0.0 11.3 0.00 0.00 0.48 62 1002.2
20260505013918 21 135 0.0 1.6 0.00 0.00 0.48 64 1002.2
20260505012918 21 112 0.0 1.6 0.00 0.00 0.48 66 1002.0
20260505011918 21 111 0.0 1.6 0.00 0.00 0.48 63 1002.0
20260505010918 22 121 0.0 0.0 0.00 0.00 0.48 60 1001.9
20260505005918 23 153 0.0 3.2 0.00 0.00 0.48 56 1001.8
20260505004918 23 162 0.0 6.4 0.00 0.00 0.48 55 1001.7
20260505003918 24 152 0.0 6.4 0.00 0.00 0.48 55 1001.5
20260505002918 24 156 0.0 4.8 0.00 0.00 0.48 53 1001.4
20260505001918 25 100 0.0 8.0 0.00 0.00 0.48 54 1001.3
20260505000918 25 156 0.0 8.0 0.00 0.00 0.48 50 1001.4
20260504235918 26 36 0.0 6.4 0.00 0.00 0.48 50 1001.3
20260504234918 26 191 6.4 11.3 0.00 0.00 0.48 49 1001.4
20260504233918 26 51 8.0 17.7 0.00 0.00 0.48 49 1001.6
20260504232918 26 199 1.6 8.0 0.00 0.00 0.48 48 1001.5
20260504231918 27 153 3.2 19.3 0.00 0.00 0.48 47 1001.7
20260504230918 27 212 0.0 9.7 0.00 0.00 0.48 47 1001.8
20260504225918 27 205 4.8 9.7 0.00 0.00 0.48 47 1002.0
20260504224918 27 5 8.0 12.9 0.00 0.00 0.48 45 1002.0
20260504223918 27 211 3.2 22.5 0.00 0.00 0.48 47 1002.1
20260504222918 26 158 8.0 17.7 0.00 0.00 0.48 48 1002.2
20260504221918 26 354 3.2 11.3 0.00 0.00 0.48 50 1002.3
20260504220918 26 229 0.0 16.1 0.00 0.00 0.48 51 1002.2
20260504215918 26 121 0.0 8.0 0.00 0.00 0.48 56 1002.1
20260504214918 26 150 3.2 14.5 0.00 0.00 0.48 56 1002.1
20260504213918 26 120 4.8 11.3 0.00 0.00 0.48 55 1002.1
20260504212918 26 243 0.0 12.9 0.00 0.00 0.48 57 1002.2
20260504211918 26 125 4.8 12.9 0.00 0.00 0.48 58 1002.0
20260504210917 25 117 3.2 8.0 0.00 0.00 0.48 61 1002.2
20260504205918 25 158 0.0 11.3 0.00 0.00 0.48 63 1002.4
20260504204918 25 152 1.6 6.4 0.00 0.00 0.48 68 1002.6
20260504203918 24 145 1.6 11.3 0.00 0.00 0.48 70 1002.6
20260504202917 23 120 1.6 3.2 0.00 0.00 0.48 77 1002.9
20260504201917 22 114 0.0 1.6 0.00 0.00 0.48 81 1002.9
20260504200917 21 100 0.0 1.6 0.00 0.00 0.48 82 1002.9
20260504195918 19 138 0.0 1.6 0.00 0.00 0.48 74 1003.2
20260504194917 18 142 0.0 1.6 0.00 0.00 0.48 70 1003.1
20260504193917 18 58 0.0 1.6 0.00 0.00 0.48 69 1003.4
20260504192917 17 360 0.0 3.2 0.00 0.00 0.48 56 1003.8
20260504191917 16 43 0.0 3.2 0.00 0.00 0.48 46 1003.8
20260504190917 15 3 0.0 3.2 0.00 0.00 0.48 50 1003.3
20260504185917 15 132 0.0 0.0 0.00 0.00 0.48 54 1004.2
20260504184917 15 226 0.0 1.6 0.00 0.00 0.48 56 1004.9
20260504183917 15 13 0.0 1.6 0.00 0.00 0.46 59 1005.1
20260504182917 15 346 1.6 3.2 0.00 0.00 0.46 61 1004.7
20260504181917 15 128 0.0 4.8 0.00 0.00 0.43 61 1004.4
20260504180917 16 136 0.0 0.0 0.00 0.00 0.13 59 1005.4
20260504175917 16 135 0.0 0.0 0.00 0.00 0.10 61 1005.2
20260504174917 15 135 0.0 0.0 0.00 0.00 0.10 66 1004.8
20260504173917 15 135 0.0 1.6 0.00 0.00 0.10 67 1004.9
20260504172917 15 135 0.0 0.0 0.00 0.00 0.10 69 1005.2
20260504171917 15 136 0.0 0.0 0.00 0.00 0.10 72 1005.5
20260504170917 15 136 0.0 1.6 0.00 0.00 0.10 75 1005.2
20260504150917 20 212 0.0 1.6 0.00 0.00 0.00 65 1007.2
20260504140917 21 139 0.0 9.7 0.00 0.00 0.00 60 1006.8